BRITE-PL2 (HEWELIUSZ)

Last updated on Sat Sep 05 2026 00:03:37 GMT+0000 (Coordinated Universal Time)

1 40119U 14049B 26247.56737998 .00000648 00000+0 64978-4 0 9993 2 40119 97.9153 0.2177 0013384 201.0494 159.0176 14.94827148653301
UTC large
Height (km)
Speed (km/s)
/
Latitude / Longitude
Inclination (degrees)
Orbital Period (minutes)
Azimuth
Elevation
Range (km)
Doppler Factor

Next 0 passes for location: London (51.5072 / 0.1276)

No passes found over London.
BRITE-PL2 (HEWELIUSZ)